Weather History for KMRH - April, 2014

Change the Weather History Date:

Sunday, April 13, 2014

  Actual Average Record
Temperature  
Mean Temperature 65 °F -  
Max Temperature 75 °F 70 °F 80 °F (1955)
Min Temperature 55 °F 49 °F 32 °F (1976)
Growing Degree Days 15 (Base 50)    
Moisture  
Dew Point 59 °F    
Average Humidity 77    
Maximum Humidity 97    
Minimum Humidity 57    
Precipitation  
Precipitation 0.00 in - - ()
Sea Level Pressure  
Sea Level Pressure 30.21 in    
Wind  
Wind Speed 5 mph (South)    
Max Wind Speed 12 mph    
Max Gust Speed -    
Visibility 9 miles    
Events      
Averages and records for this station are not official NWS values.
T = Trace of Precipitation, MM = Missing Value Source: NWS Daily Summary

Daily Weather History Graph

Daily Weather History Graph

Search for Another Location

Airport or City:

Trip Planner

Search our weather history database for the weather conditions in past years. The results will help you decide how hot, cold, wet, or windy it might be!

Date:

Astronomy

Apr. 13, 2014 Rise Set
Actual Time 6:37 AM EDT 7:37 PM EDT
Civil Twilight 6:11 AM EDT 8:03 PM EDT
Nautical Twilight 5:41 AM EDT 8:33 PM EDT
Astronomical Twilight 5:09 AM EDT 9:05 PM EDT
Moon 6:15 PM EDT (4/13) 5:31 AM EDT (4/13)
Length of Visible Light 13h 51m
Length of Day
12h 59m
Waxing Gibbous, 97% of the Moon is Illuminated
Apr 13
Waxing Gibbous
Apr 15
Full
Apr 22
Last Quarter
Apr 29
New
May 6
First Quarter

Hourly Weather History & Observations

Time (EDT) Temp. Dew Point Humidity Pressure Visibility Wind Dir Wind Speed Gust Speed Precip Events Conditions
12:58 AM 62.1 °F 57.9 °F 86% 30.22 in 10.0 mi South 5.8 mph - N/A   Clear
1:58 AM 61.0 °F 57.9 °F 90% 30.22 in 10.0 mi SSW 4.6 mph - N/A   Partly Cloudy
2:58 AM 57.9 °F 55.9 °F 93% 30.20 in 10.0 mi Calm Calm - N/A   Partly Cloudy
3:58 AM 57.9 °F 55.9 °F 93% 30.20 in 10.0 mi Calm Calm - N/A   Clear
4:58 AM 57.0 °F 55.0 °F 93% 30.21 in 9.0 mi Calm Calm - N/A   Clear
5:58 AM 55.9 °F 55.0 °F 97% 30.22 in 9.0 mi Calm Calm - N/A   Clear
6:58 AM 55.9 °F 55.0 °F 97% 30.23 in 3.0 mi Calm Calm - N/A   Clear
7:20 AM 57.9 °F 57.0 °F 97% 30.24 in 2.5 mi Calm Calm - N/A   Scattered Clouds
7:58 AM 64.0 °F 62.1 °F 93% 30.25 in 3.0 mi Calm Calm - N/A   Mostly Cloudy
8:58 AM 70.0 °F 61.0 °F 73% 30.26 in 10.0 mi SSW 3.5 mph - N/A   Clear
9:58 AM 72.0 °F 61.0 °F 68% 30.27 in 10.0 mi SW 4.6 mph - N/A   Clear
10:58 AM 73.0 °F 59.0 °F 61% 30.26 in 10.0 mi South 6.9 mph - N/A   Clear
11:58 AM 73.9 °F 59.0 °F 59% 30.25 in 10.0 mi South 9.2 mph - N/A   Clear
12:58 PM 75.0 °F 59.0 °F 57% 30.23 in 10.0 mi South 8.1 mph - N/A   Clear
1:58 PM 75.0 °F 59.0 °F 57% 30.23 in 10.0 mi SSE 9.2 mph - N/A   Clear
2:58 PM 75.9 °F 60.1 °F 58% 30.20 in 10.0 mi South 10.4 mph - N/A   Clear
3:58 PM 75.0 °F 60.1 °F 60% 30.19 in 10.0 mi South 9.2 mph - N/A   Clear
4:58 PM 73.9 °F 60.1 °F 62% 30.19 in 10.0 mi South 8.1 mph - N/A   Clear
5:58 PM 72.0 °F 60.1 °F 66% 30.19 in 10.0 mi South 11.5 mph - N/A   Clear
6:58 PM 71.1 °F 59.0 °F 66% 30.18 in 10.0 mi SSE 6.9 mph - N/A   Clear
7:58 PM 68.0 °F 57.9 °F 70% 30.19 in 10.0 mi SSE 5.8 mph - N/A   Partly Cloudy
8:58 PM 66.9 °F 61.0 °F 81% 30.19 in 10.0 mi SSE 8.1 mph - N/A   Partly Cloudy
9:58 PM 68.0 °F 62.1 °F 81% 30.18 in 10.0 mi SE 8.1 mph - N/A   Scattered Clouds
10:58 PM 66.9 °F 62.1 °F 84% 30.18 in 10.0 mi SSE 8.1 mph - N/A   Mostly Cloudy
11:58 PM 68.0 °F 61.0 °F 78% 30.17 in 10.0 mi SSE 8.1 mph - 0.00 in   Overcast